• In Portugal
  • List of Countries
  • For 7 days
  • Water Temperature
  • Satellite Maps
  • Weather Map
  • Weather Widgets
  • user-avatar
    Login

    Hourly Weather Córdoba

    Today, 18 December, Monday

    Time Temperature Precipitation Wind Pressure Humidity
    00:00 +18°C° 0 mm 1 mps 727 mmHg 35%
    01:00 +16°C° 0 mm 1 mps 727 mmHg 37%
    02:00 +16°C° 0 mm 1 mps 727 mmHg 38%
    03:00 +16°C° 0 mm 1 mps 727 mmHg 39%
    04:00 +15°C° 0 mm 1 mps 727 mmHg 41%
    05:00 +15°C° 0 mm 1 mps 727 mmHg 42%
    06:00 +17°C° 0 mm 2 mps 727 mmHg 42%
    07:00 +18°C° 0 mm 3 mps 727 mmHg 41%
    08:00 +20°C° 0 mm 4 mps 728 mmHg 40%
    09:00 +22°C° 0 mm 4 mps 727 mmHg 37%
    10:00 +23°C° 0 mm 4 mps 727 mmHg 34%
    11:00 +26°C° 0 mm 4 mps 727 mmHg 31%
    12:00 +27°C° 0 mm 5 mps 726 mmHg 29%
    13:00 +28°C° 0 mm 5 mps 725 mmHg 28%
    14:00 +30°C° 0 mm 5 mps 725 mmHg 26%
    15:00 +29°C° 0 mm 5 mps 724 mmHg 27%
    16:00 +29°C° 0 mm 5 mps 724 mmHg 28%
    17:00 +29°C° 0 mm 5 mps 723 mmHg 28%
    18:00 +27°C° 0 mm 4 mps 723 mmHg 31%
    19:00 +25°C° 0 mm 4 mps 723 mmHg 34%
    20:00 +22°C° 0 mm 3 mps 723 mmHg 37%
    21:00 +21°C° 0 mm 2 mps 724 mmHg 39%
    22:00 +21°C° 0 mm 2 mps 724 mmHg 40%
    23:00 +21°C° 0 mm 1 mps 724 mmHg 41%

    Tomorrow, 19 December, Tuesday

    Time Temperature Precipitation Wind Pressure Humidity
    00:00 +21°C° 0 mm 1 mps 724 mmHg 42%
    01:00 +21°C° 0 mm 1 mps 724 mmHg 43%
    02:00 +21°C° 0 mm 1 mps 724 mmHg 44%
    03:00 +20°C° 0 mm 1 mps 724 mmHg 46%
    04:00 +20°C° 0 mm 1 mps 724 mmHg 49%
    05:00 +20°C° 0 mm 1 mps 723 mmHg 52%
    06:00 +21°C° 0.3 mm 1 mps 724 mmHg 55%
    07:00 +21°C° 0.3 mm 1 mps 724 mmHg 58%
    08:00 +22°C° 0.3 mm 1 mps 725 mmHg 62%
    09:00 +21°C° 0.8 mm 2 mps 725 mmHg 65%
    10:00 +21°C° 0.8 mm 2 mps 725 mmHg 68%
    11:00 +21°C° 0.8 mm 3 mps 725 mmHg 72%
    12:00 +22°C° 0.5 mm 3 mps 724 mmHg 73%
    13:00 +22°C° 0.5 mm 3 mps 724 mmHg 73%
    14:00 +24°C° 0.5 mm 3 mps 723 mmHg 74%
    15:00 +24°C° 0.2 mm 3 mps 723 mmHg 76%
    16:00 +24°C° 0.2 mm 3 mps 723 mmHg 78%
    17:00 +24°C° 0.2 mm 3 mps 722 mmHg 80%
    18:00 +22°C° 0.1 mm 3 mps 723 mmHg 84%
    19:00 +23°C° 0.1 mm 2 mps 723 mmHg 88%
    20:00 +21°C° 0.1 mm 2 mps 723 mmHg 92%
    21:00 +21°C° 0.1 mm 2 mps 723 mmHg 93%
    22:00 +20°C° 0.1 mm 2 mps 724 mmHg 94%
    23:00 +20°C° 0.1 mm 2 mps 724 mmHg 95%

    Day after tomorrow, 20 December, Wednesday

    Time Temperature Precipitation Wind Pressure Humidity
    00:00 +20°C° 0 mm 2 mps 723 mmHg 95%
    01:00 +20°C° 0 mm 2 mps 723 mmHg 95%
    02:00 +20°C° 0 mm 2 mps 723 mmHg 95%
    03:00 +20°C° 0 mm 2 mps 723 mmHg 94%
    04:00 +20°C° 0 mm 2 mps 723 mmHg 94%
    05:00 +20°C° 0 mm 3 mps 723 mmHg 93%
    06:00 +21°C° 0 mm 3 mps 723 mmHg 89%
    07:00 +22°C° 0 mm 3 mps 723 mmHg 85%
    08:00 +24°C° 0 mm 3 mps 723 mmHg 81%
    09:00 +26°C° 0 mm 4 mps 723 mmHg 73%
    10:00 +28°C° 0 mm 4 mps 723 mmHg 65%
    11:00 +30°C° 0 mm 4 mps 723 mmHg 56%
    12:00 +32°C° 0 mm 5 mps 722 mmHg 52%
    13:00 +34°C° 0 mm 5 mps 721 mmHg 49%
    14:00 +35°C° 0 mm 5 mps 720 mmHg 45%
    15:00 +34°C° 0 mm 5 mps 720 mmHg 45%
    16:00 +34°C° 0 mm 5 mps 719 mmHg 46%
    17:00 +34°C° 0 mm 5 mps 719 mmHg 47%
    18:00 +32°C° 0 mm 4 mps 719 mmHg 53%
    19:00 +29°C° 0 mm 4 mps 719 mmHg 59%
    20:00 +27°C° 0 mm 3 mps 719 mmHg 66%
    21:00 +26°C° 0 mm 3 mps 719 mmHg 68%
    22:00 +25°C° 0 mm 2 mps 719 mmHg 71%
    23:00 +25°C° 0 mm 2 mps 719 mmHg 74%

    21 December, Thursday

    Time Temperature Precipitation Wind Pressure Humidity
    00:00 +24°C° 0 mm 2 mps 719 mmHg 75%
    01:00 +24°C° 0 mm 2 mps 719 mmHg 76%
    02:00 +24°C° 0 mm 1 mps 718 mmHg 77%
    03:00 +24°C° 0 mm 1 mps 719 mmHg 78%
    04:00 +23°C° 0 mm 1 mps 719 mmHg 79%
    05:00 +23°C° 0 mm 1 mps 719 mmHg 80%
    06:00 +25°C° 0 mm 1 mps 720 mmHg 73%
    07:00 +27°C° 0 mm 2 mps 720 mmHg 67%
    08:00 +28°C° 0 mm 2 mps 721 mmHg 61%
    09:00 +30°C° 0 mm 2 mps 720 mmHg 55%
    10:00 +33°C° 0 mm 3 mps 720 mmHg 49%
    11:00 +35°C° 0 mm 3 mps 720 mmHg 44%
    12:00 +36°C° 0.1 mm 3 mps 720 mmHg 40%
    13:00 +36°C° 0.1 mm 3 mps 719 mmHg 36%
    14:00 +37°C° 0.1 mm 3 mps 718 mmHg 32%
    15:00 +37°C° 0 mm 4 mps 718 mmHg 32%
    16:00 +37°C° 0 mm 4 mps 717 mmHg 32%
    17:00 +37°C° 0 mm 5 mps 717 mmHg 32%
    18:00 +35°C° 0 mm 4 mps 717 mmHg 38%
    19:00 +33°C° 0 mm 4 mps 717 mmHg 44%
    20:00 +30°C° 0 mm 3 mps 717 mmHg 50%
    21:00 +30°C° 0 mm 3 mps 717 mmHg 53%
    22:00 +29°C° 0 mm 3 mps 718 mmHg 57%
    23:00 +28°C° 0 mm 2 mps 718 mmHg 60%

    22 December, Friday

    Time Temperature Precipitation Wind Pressure Humidity
    00:00 +28°C° 0 mm 2 mps 717 mmHg 62%
    01:00 +27°C° 0 mm 2 mps 717 mmHg 64%
    02:00 +27°C° 0 mm 2 mps 716 mmHg 66%
    03:00 +27°C° 0 mm 2 mps 716 mmHg 67%
    04:00 +26°C° 0 mm 3 mps 716 mmHg 69%
    05:00 +26°C° 0 mm 3 mps 716 mmHg 70%
    06:00 +28°C° 0.1 mm 3 mps 716 mmHg 64%
    07:00 +30°C° 0.1 mm 3 mps 716 mmHg 57%
    08:00 +33°C° 0.1 mm 4 mps 717 mmHg 50%
    09:00 +35°C° 0.7 mm 4 mps 717 mmHg 47%
    10:00 +36°C° 0.7 mm 4 mps 717 mmHg 44%
    11:00 +37°C° 0.7 mm 4 mps 717 mmHg 40%
    12:00 +36°C° 1.4 mm 5 mps 716 mmHg 45%
    13:00 +35°C° 1.4 mm 5 mps 716 mmHg 50%
    14:00 +33°C° 1.4 mm 6 mps 716 mmHg 54%
    15:00 +33°C° 1.5 mm 6 mps 716 mmHg 57%
    16:00 +32°C° 1.5 mm 7 mps 716 mmHg 59%
    17:00 +30°C° 1.5 mm 7 mps 716 mmHg 62%
    18:00 +28°C° 0.2 mm 7 mps 717 mmHg 67%
    19:00 +27°C° 0.2 mm 6 mps 718 mmHg 71%
    20:00 +24°C° 0.2 mm 6 mps 719 mmHg 76%
    21:00 +23°C° 0 mm 5 mps 719 mmHg 72%
    22:00 +22°C° 0 mm 5 mps 720 mmHg 68%
    23:00 +22°C° 0 mm 5 mps 720 mmHg 64%

    23 December, Saturday

    Time Temperature Precipitation Wind Pressure Humidity
    00:00 +21°C° 0 mm 5 mps 720 mmHg 58%
    01:00 +21°C° 0 mm 5 mps 721 mmHg 52%
    02:00 +21°C° 0 mm 5 mps 721 mmHg 46%
    03:00 +20°C° 0 mm 5 mps 721 mmHg 42%
    04:00 +20°C° 0 mm 5 mps 721 mmHg 39%
    05:00 +19°C° 0 mm 5 mps 722 mmHg 36%
    06:00 +21°C° 0 mm 5 mps 723 mmHg 33%
    07:00 +22°C° 0 mm 5 mps 723 mmHg 30%
    08:00 +25°C° 0 mm 5 mps 724 mmHg 27%
    09:00 +26°C° 0 mm 5 mps 724 mmHg 25%
    10:00 +28°C° 0 mm 5 mps 724 mmHg 23%
    11:00 +29°C° 0 mm 4 mps 724 mmHg 20%
    12:00 +30°C° 0 mm 4 mps 723 mmHg 20%
    13:00 +32°C° 0 mm 5 mps 723 mmHg 19%
    14:00 +33°C° 0 mm 5 mps 722 mmHg 19%
    15:00 +32°C° 0 mm 5 mps 722 mmHg 21%
    16:00 +32°C° 0 mm 5 mps 721 mmHg 24%
    17:00 +30°C° 0 mm 5 mps 721 mmHg 26%
    18:00 +28°C° 0 mm 4 mps 721 mmHg 33%
    19:00 +26°C° 0 mm 3 mps 721 mmHg 40%
    20:00 +24°C° 0 mm 3 mps 721 mmHg 46%
    21:00 +23°C° 0 mm 2 mps 722 mmHg 49%
    22:00 +21°C° 0 mm 2 mps 722 mmHg 51%
    23:00 +21°C° 0 mm 1 mps 722 mmHg 53%
    Show more